GW1852 Weather Reports


time (UTC)temp
F
wind
direction
speed
knots
gust
knots
rain 1hr
in
rain 24hr
in
rain mn
in
humidity
%
barometer
mb
20260906234522 63 319 0.0 0.0 0.00 0.12 0.00 74 1015.8
20260906233020 63 323 0.0 0.0 0.00 0.12 0.00 74 1015.7
20260906231517 63 324 0.0 0.0 0.00 0.12 0.00 76 1016.0
20260906230017 62 342 0.0 0.0 0.00 0.12 0.00 78 1016.1
20260906224517 63 351 0.0 0.0 0.00 0.12 0.00 79 1016.1
20260906223014 63 320 0.0 0.0 0.00 0.12 0.00 78 1016.2
20260906221512 62 306 0.0 0.0 0.00 0.12 0.00 78 1016.4
20260906220011 63 296 0.0 0.0 0.00 0.12 0.00 79 1016.4
20260906214518 63 290 0.0 0.0 0.00 0.12 0.00 79 1016.3
20260906213012 63 72 0.0 0.0 0.00 0.12 0.00 75 1016.4
20260906211508 62 51 0.0 0.0 0.00 0.12 0.00 75 1016.5
20260906210006 63 60 0.0 0.0 0.00 0.12 0.00 73 1016.4
20260906204506 63 100 0.0 0.0 0.00 0.12 0.00 73 1016.4
20260906203010 63 72 0.0 0.0 0.00 0.12 0.00 73 1016.5
20260906201501 62 70 0.0 0.0 0.00 0.12 0.00 74 1016.5
20260906200100 62 90 0.0 0.0 0.00 0.12 0.00 76 1016.6
20260906194558 62 72 0.0 0.0 0.00 0.12 0.00 77 1016.7
20260906193057 62 58 0.0 0.0 0.00 0.12 0.00 76 1016.9
20260906191553 62 77 0.0 0.0 0.00 0.12 0.00 77 1016.9
20260906190106 62 91 0.0 0.0 0.00 0.12 0.00 77 1017.0
20260906184550 61 57 0.0 0.0 0.00 0.12 0.00 78 1017.1
20260906183104 61 72 0.0 0.0 0.00 0.12 0.00 81 1016.9
20260906181544 60 74 0.0 0.0 0.00 0.12 0.00 82 1017.2
20260906180050 59 84 0.0 0.0 0.00 0.12 0.00 85 1017.5
20260906174538 59 74 0.0 0.0 0.00 0.12 0.00 88 1017.4
20260906173038 57 63 0.0 0.0 0.00 0.12 0.00 88 1017.6
20260906171534 56 48 0.0 0.0 0.00 0.12 0.00 89 1017.2
20260906170105 56 1 0.0 0.0 0.00 0.12 0.00 89 1018.6
20260906164529 55 342 0.0 0.0 0.00 0.12 0.00 89 1018.7
20260906163029 56 341 0.0 0.0 0.00 0.12 0.00 88 1018.9
20260906161532 55 340 0.0 0.0 0.00 0.12 0.00 87 1018.8
20260906160028 55 4 0.0 0.0 0.00 0.12 0.00 87 1018.8
20260906154526 54 16 0.0 0.0 0.00 0.12 0.00 86 1019.0
20260906153026 54 26 0.0 0.0 0.00 0.12 0.00 87 1019.2
20260906151525 54 9 0.0 0.0 0.00 0.12 0.00 86 1019.2
20260906150024 54 34 0.0 0.0 0.00 0.12 0.00 88 1019.3
20260906144533 54 333 0.0 0.0 0.00 0.13 0.00 89 1019.6
20260906143021 55 15 0.0 0.0 0.00 0.13 0.00 89 1019.6
20260906141517 56 334 0.0 0.0 0.00 0.13 0.00 87 1019.5
20260906140015 58 4 0.0 0.0 0.00 0.13 0.00 86 1019.2
20260906134522 57 4 0.0 0.0 0.00 0.17 0.00 85 1019.0
20260906133016 57 33 0.0 0.0 0.00 0.17 0.00 85 1019.0
20260906131514 58 335 0.0 0.0 0.00 0.17 0.00 84 1018.8
20260906130013 58 25 0.0 0.0 0.00 0.17 0.00 83 1019.0
20260906124521 58 357 0.0 0.0 0.00 0.17 0.00 83 1019.0
20260906123012 58 15 0.0 0.0 0.00 0.17 0.00 85 1019.2
20260906121512 58 38 0.0 0.0 0.00 0.17 0.00 85 1018.6
20260906120010 58 31 0.0 0.0 0.00 0.17 0.00 84 1018.5
20260906114510 58 41 0.0 0.0 0.00 0.17 0.00 83 1018.5
20260906113011 58 53 0.0 0.0 0.00 0.17 0.00 83 1018.8
20260906111515 58 32 0.0 0.0 0.00 0.17 0.00 83 1018.8
20260906110005 58 54 0.0 0.0 0.00 0.17 0.00 83 1018.9
20260906104505 58 59 0.0 0.0 0.00 0.17 0.00 82 1018.9
20260906103004 58 45 0.0 0.0 0.00 0.17 0.00 82 1019.0
20260906101505 58 37 0.0 0.0 0.00 0.17 0.00 84 1018.8
20260906100003 58 41 0.0 0.0 0.00 0.17 0.00 84 1018.8
20260906094502 58 45 0.0 0.0 0.00 0.17 0.00 84 1019.0
20260906093100 58 43 0.0 0.0 0.00 0.17 0.00 85 1018.9
20260906091606 57 25 0.0 0.0 0.00 0.17 0.00 86 1018.8
20260906090057 58 26 0.0 0.0 0.00 0.17 0.00 85 1019.1
20260906084558 57 25 0.0 0.0 0.00 0.17 0.00 86 1019.2
20260906083053 57 1 0.0 0.0 0.00 0.17 0.00 86 1019.6
20260906081550 57 15 0.0 0.0 0.00 0.17 0.00 87 1020.0
20260906080048 57 332 0.0 0.0 0.00 0.17 0.00 86 1020.1
20260906074551 58 307 0.0 0.0 0.00 0.17 0.00 86 1020.1
20260906073047 57 19 0.0 0.0 0.00 0.17 0.00 85 1020.0
20260906071546 57 32 0.0 0.0 0.00 0.17 0.00 84 1020.0
20260906070046 58 27 0.0 0.0 0.00 0.17 0.00 83 1020.1
20260906064546 58 36 0.0 0.0 0.00 0.17 0.00 82 1020.1
20260906063043 58 27 0.0 0.0 0.00 0.17 0.00 82 1020.3
20260906061541 57 25 0.0 0.0 0.00 0.17 0.00 84 1020.5
20260906060038 57 336 0.0 0.0 0.00 0.17 0.00 86 1020.5
20260906054542 57 330 0.0 0.0 0.00 0.17 0.17 86 1020.7
20260906053039 57 346 0.0 0.9 0.00 0.17 0.17 86 1020.7
20260906051536 56 32 0.0 0.0 0.01 0.17 0.17 87 1020.0
20260906050048 57 6 0.0 0.0 0.01 0.17 0.17 85 1019.9
20260906044534 57 14 0.0 0.0 0.01 0.17 0.17 87 1020.0
20260906043034 58 33 0.0 0.9 0.01 0.17 0.17 84 1020.0
20260906041533 58 359 0.0 3.5 0.00 0.16 0.16 83 1019.9
20260906040033 58 30 0.0 0.0 0.03 0.16 0.16 81 1019.2
20260906034533 58 30 0.0 0.0 0.11 0.16 0.16 81 1019.0
20260906033031 59 24 0.0 0.0 0.11 0.16 0.16 76 1019.2
20260906031532 60 29 0.0 0.0 0.11 0.16 0.16 74 1019.6
20260906030029 63 44 0.0 0.0 0.07 0.12 0.12 70 1019.4
20260906024527 62 38 8.7 15.6 0.00 0.05 0.05 64 1019.4
20260906023030 63 44 10.4 16.5 0.00 0.05 0.05 62 1017.7
20260906021526 64 44 7.0 12.2 0.00 0.05 0.05 60 1017.7
20260906020026 65 48 7.0 12.2 0.00 0.05 0.05 59 1017.8
20260906014527 65 46 7.0 13.0 0.00 0.05 0.05 59 1017.8
20260906013030 66 48 7.8 13.0 0.00 0.05 0.05 58 1017.9
20260906011522 67 54 5.2 10.4 0.00 0.05 0.05 56 1018.0
20260906010022 68 43 7.0 15.6 0.00 0.05 0.05 54 1017.8
20260906004521 68 28 7.0 13.9 0.00 0.05 0.05 54 1018.0
20260906003021 68 11 7.0 15.6 0.00 0.05 0.05 52 1017.8
20260906001521 69 42 8.7 13.9 0.00 0.05 0.05 50 1018.2
20260906000036 70 7 9.6 14.8 0.00 0.05 0.05 50 1018.1